Weather History for Hettinger, ND

Change the Weather History Date:

Tuesday, October 8, 2013

  Actual Average Record
Temperature  
Mean Temperature 47 °F -  
Max Temperature 61 °F 60 °F 81 °F (2010)
Min Temperature 33 °F 32 °F 21 °F (2000)
Degree Days  
Heating Degree Days 18 19  
Month to date heating degree days 171 139  
Since 1 July heating degree days 332 510  
Cooling Degree Days 0 0  
Month to date cooling degree days 0 0  
Year to date cooling degree days 320 376  
Moisture  
Dew Point 35 °F    
Average Humidity 66    
Maximum Humidity 92    
Minimum Humidity 36    
Precipitation  
Precipitation 0.00 in 0.03 in 0.00 in (2014)
Month to date precipitation 1.79 0.23  
Year to date precipitation 21.77 14.15  
Sea Level Pressure  
Sea Level Pressure 29.75 in    
Wind  
Wind Speed 8 mph (NNW)    
Max Wind Speed 17 mph    
Max Gust Speed 22 mph    
Visibility 10 miles    
Events      
T = Trace of Precipitation, MM = Missing Value Source: NWS Daily Summary

Daily Weather History Graph

Daily Weather History Graph

Search for Another Location

Airport:

Trip Planner

Search our weather history database for the weather conditions in past years. The results will help you decide how hot, cold, wet, or windy it might be!

Date:

Astronomy

Oct. 08, 2013 Rise Set
Actual Time 6:58 AM MDT 6:16 PM MDT
Civil Twilight 6:28 AM MDT 6:46 PM MDT
Nautical Twilight 5:54 AM MDT 7:21 PM MDT
Astronomical Twilight 5:19 AM MDT 7:55 PM MDT
Moon 11:07 AM MDT (10/8) 8:42 PM MDT (10/8)
Length of Visible Light 12h 18m
Length of Day
11h 18m
Waxing Crescent, 16% of the Moon is Illuminated
Oct 8
Waxing Crescent
Oct 11
First Quarter
Oct 18
Full
Oct 26
Last Quarter
Nov 3
New

Hourly Weather History & Observations

Time (MDT) Temp. Windchill Dew Point Humidity Pressure Visibility Wind Dir Wind Speed Gust Speed Precip Events Conditions
12:53 AM 37.0 °F - 33.1 °F 86% 29.67 in 10.0 mi Calm Calm - N/A   Clear
1:53 AM 35.1 °F - 32.0 °F 89% 29.66 in 10.0 mi Calm Calm - N/A   Clear
2:53 AM 37.0 °F 31.6 °F 34.0 °F 89% 29.64 in 10.0 mi WNW 6.9 mph - N/A   Clear
3:53 AM 41.0 °F 39.0 °F 35.1 °F 79% 29.63 in 10.0 mi WNW 3.5 mph - N/A   Clear
4:53 AM 39.0 °F 33.4 °F 36.0 °F 89% 29.65 in 10.0 mi WNW 8.1 mph - N/A   Clear
5:53 AM 42.1 °F 36.1 °F 37.0 °F 82% 29.67 in 10.0 mi NW 10.4 mph - N/A   Clear
6:53 AM 37.9 °F 32.7 °F 35.1 °F 89% 29.69 in 10.0 mi WNW 6.9 mph - N/A   Clear
7:53 AM 41.0 °F 38.0 °F 37.9 °F 89% 29.70 in 10.0 mi WNW 4.6 mph - N/A   Clear
8:53 AM 45.0 °F 43.5 °F 37.9 °F 76% 29.72 in 10.0 mi NNW 3.5 mph - N/A   Clear
9:53 AM 48.9 °F - 36.0 °F 61% 29.73 in 10.0 mi NW 13.8 mph - N/A   Clear
10:53 AM 52.0 °F - 35.1 °F 53% 29.73 in 10.0 mi NNW 12.7 mph - N/A   Clear
11:53 AM 55.9 °F - 34.0 °F 44% 29.74 in 10.0 mi NNW 9.2 mph - N/A   Clear
12:53 PM 59.0 °F - 35.1 °F 41% 29.74 in 10.0 mi NNW 11.5 mph - N/A   Clear
1:53 PM 57.9 °F - 35.1 °F 42% 29.73 in 10.0 mi NNW 9.2 mph - N/A   Clear
2:53 PM 60.1 °F - 33.1 °F 36% 29.73 in 10.0 mi North 10.4 mph - N/A   Clear
3:53 PM 59.0 °F - 37.0 °F 44% 29.74 in 10.0 mi North 5.8 mph - N/A   Clear
4:53 PM 55.0 °F - 37.0 °F 51% 29.76 in 10.0 mi NNE 6.9 mph - N/A   Clear
5:53 PM 53.1 °F - 35.1 °F 50% 29.78 in 10.0 mi NNE 9.2 mph - N/A   Clear
6:53 PM 48.0 °F - 34.0 °F 58% 29.83 in 10.0 mi NNE 8.1 mph - N/A   Clear
7:53 PM 52.0 °F - 32.0 °F 47% 29.84 in 10.0 mi North 10.4 mph - N/A   Clear
8:53 PM 46.9 °F - 33.1 °F 59% 29.86 in 10.0 mi North 10.4 mph - N/A   Clear
9:53 PM 45.0 °F 39.7 °F 33.1 °F 63% 29.90 in 10.0 mi North 10.4 mph - N/A   Clear
10:53 PM 39.9 °F 35.8 °F 32.0 °F 73% 29.92 in 10.0 mi NW 5.8 mph - N/A   Clear
11:53 PM 34.0 °F 29.8 °F 30.9 °F 89% 29.94 in 10.0 mi West 4.6 mph - N/A   Clear